World > North America > United States > Washington

Bridgeport, Washington Regional Weather

Lat: 48.01N, Lon: 119.67W
Wx Zone: WAZ043Web Search

Helpful Tip: Abbreviated, 7 Day, 14 Day Forecasts. There is a weather forecast for every taste.

Feedback


°F Click to change Bridgeport hourly weather to Imperial units.Click to change Bridgeport hourly weather to Metric units. °C
Bridgeport Weather Map
UTC Time: 4/14/2021, 04:40
Your Time:

Bridgeport, WA Regional Weather

Expires:202104140500;;520498
ASUS46 KSEW 140420
RWRWA 

WASHINGTON REGIONAL WEATHER ROUNDUP
NATIONAL WEATHER SERVICE SEATTLE WA
900 PM PDT TUE APR 13 2021

NOTE:"FAIR" INDICATES FEW OR NO CLOUDS BELOW 12,000 FEET WITH NO 
SIGNIFICANT WEATHER AND/OR OBSTRUCTIONS TO VISIBILITY.


WAZ026-027-041>044-520-521-140500-
EAST SLOPES
  
CITY           SKY/WX    TMP DP  RH WIND       PRES   REMARKS
OMAK           CLEAR     49  18  29 N10       30.26R                  
WENATCHEE      CLEAR     54  14  20 NE5       30.22S                  
ELLENSBURG     CLEAR     48  15  26 NE8       30.21R                  
YAKIMA         CLEAR     52  13  21 NE5       30.21R                  
SUNNYSIDE ARPT CLEAR     50  17  26 N6        30.19                   
YAKIMA TC      FAIR      46  11  24 E8        30.19R                  
$$


SKY/WX - Weather  TMP - Temperature  DP - Dew Point  RH - Relative Humidity
WIND - Wind Direction/Speed PRES - Barometric Pressure VSB - Visibility
WCI - Wind Chill Index E13G22 Wind - East Wind 13 mph/Gusts of 22 mph